Flight Track Log - Related Links

Times and Time Zones

All times are in EDT time to prevent confusion due to time zone crossing. See the N62681 flight status page for this flight to view local times or setup timezone preferences in your user account.


Time Position Orientation Groundspeed Altitude Reporting Facility
EDT Latitude Longitude Course Direction KTS MPH feet Rate Location/Type
Fri 04:16:06 PM 41.8833 -88.2500 143° Southeast 77 89 1,800  Level Chicago TRACON
Fri 04:17:06 PM 41.8667 -88.2333 143° Southeast 64 74 2,300 600 Climbing Chicago TRACON
Fri 04:18:06 PM 41.8500 -88.2333 180° South 71 82 3,000 300 Climbing Chicago TRACON
Fri 04:19:06 PM 41.8333 -88.2167 143° Southeast 88 101 2,900 -80 Descending Chicago TRACON
Fri 04:19:21 PM 41.8247 -88.2178 185° South 77 89 2,900 77 Level Chicago Center
Fri 04:20:24 PM 41.8053 -88.2114 166° South 78 90 3,000 48 Climbing Chicago Center
Fri 04:21:26 PM 41.7806 -88.2039 167° South 82 94 3,000  Level Chicago Center
Fri 04:22:28 PM 41.7672 -88.2333 239° Southwest 91 105 3,000  Level Chicago Center
Fri 04:23:30 PM 41.7617 -88.2675 258° West 94 108 3,000 -48 Level Chicago Center
Fri 04:24:32 PM 41.7569 -88.3075 261° West 92 106 2,900  Descending Chicago Center
Fri 04:25:34 PM 41.7519 -88.3403 258° West 92 106 3,000 48 Climbing Chicago Center
Fri 04:26:36 PM 41.7489 -88.3719 263° West 90 104 3,000  Level Chicago Center
Fri 04:27:38 PM 41.7456 -88.4014 261° West 85 98 3,000  Level Chicago Center
Fri 04:28:40 PM 41.7408 -88.4294 257° West 81 93 3,000  Level Chicago Center
Fri 04:29:42 PM 41.7383 -88.4683 265° West 84 97 3,000 48 Level Chicago Center
Fri 04:30:44 PM 41.7361 -88.5025 265° West 88 101 3,100  Climbing Chicago Center
Fri 04:31:46 PM 41.7328 -88.5369 263° West 91 105 3,000 -48 Descending Chicago Center
Fri 04:32:48 PM 41.7303 -88.5694 264° West 91 105 3,000  Level Chicago Center
Fri 04:33:50 PM 41.7281 -88.6008 265° West 89 102 3,000  Level Chicago Center
Fri 04:34:52 PM 41.7247 -88.6397 263° West 87 100 3,000  Level Chicago Center
Fri 04:35:55 PM 41.7222 -88.6725 264° West 88 101 3,000 48 Level Chicago Center
Fri 04:36:57 PM 41.7222 -88.7072 270° West 91 105 3,100  Climbing Chicago Center
Fri 04:37:59 PM 41.7553 -88.7139 351° North 108 124 3,000 -48 Descending Chicago Center
Fri 04:39:01 PM 41.7700 -88.6833 57° Northeast 111 128 3,000 -145 Level Chicago Center
Fri 04:40:03 PM 41.7689 -88.6364 92° East 109 125 2,700 -242 Descending Chicago Center
Fri 04:41:05 PM 41.7667 -88.5956 94° East 106 122 2,500 -435 Descending Chicago Center
Fri 04:42:07 PM 41.7683 -88.5586 87° East 106 122 1,800 -581 Descending Chicago Center
Fri 04:43:09 PM 41.7692 -88.5197 88° East 105 121 1,300 -484 Descending Chicago Center

Login

Don't have an account? Register now (free) for customized features, flight alerts, and more!